Date String (YYYY-MM-DD hh:mm:ss) UTC,Instrument flags,absolute air pressure of the measurement (hPa),sample flow rate (lpm),inlet stack bypass flow (lpm),air temperature of the measurement (°C),ambient temperature measured by the external sensor (°C),aerosol sample conditioner tube jacket temperature (°C),OPC LED temperature (°C),internal box temperature (°C),relative humidity of the measurement (%),span deviation,mass concentration of particles derived from Lorenz-Mie calculation of OPC scattering (μg/m³),mass concentration of particles derived from Lorenz-Mie calculation of OPC scattering (μg/m³),mass concentration of particles derived from Lorenz-Mie calculation of OPC scattering (μg/m³)
DateTimeUTC,F1_M11,P_M11,Q1_M11,Q2_M11,T1_M11,T2_M11,T3_M11,T4_M11,T5_M11,U1_M11,ZSPAN_M11,X0_M11,X2_M11,X1_M11
2023-07-26 09:00:00,SystemResetWarning,0834.1,5.00,000.00,029.1,027.8,000.0,037.5,030.9,23.4,0000.0,0007.09,0003.30,0002.10
2023-07-26 09:01:00,SystemResetWarning,0834.1,5.00,000.00,029.2,028.0,000.0,037.5,030.9,23.2,0000.0,0006.85,0003.27,0002.10
2023-07-26 09:02:00,SystemResetWarning,0834.1,5.00,000.00,029.2,027.9,000.0,037.5,031.0,22.4,0000.0,0006.78,0003.26,0002.11
2023-07-26 09:03:00,SystemResetWarning,0834.1,5.00,000.00,029.2,026.3,000.0,037.4,030.8,21.2,0000.0,0006.66,0003.25,0002.13
2023-07-26 09:04:00,SystemResetWarning,0834.1,5.01,000.00,029.2,025.6,000.0,037.3,030.7,21.7,0000.0,0006.90,0003.27,0002.15
2023-07-26 09:05:00,SystemResetWarning,0834.1,5.00,000.00,029.1,025.8,000.0,037.4,030.5,22.1,0000.0,0007.54,0003.30,0002.17
2023-07-26 09:06:00,SystemResetWarning,0834.1,5.00,000.00,029.0,026.1,000.0,037.4,030.5,21.9,0000.0,0007.60,0003.33,0002.21
2023-07-26 09:07:00,SystemResetWarning,0834.2,5.01,000.00,029.0,026.5,000.0,037.4,030.6,22.0,0000.0,0007.63,0003.35,0002.26
2023-07-26 09:08:00,SystemResetWarning,0834.2,5.01,000.00,029.1,026.8,000.0,037.5,030.6,21.3,0000.0,0007.75,0003.38,0002.31
2023-07-26 09:09:00,SystemResetWarning,0834.2,4.99,000.00,029.1,027.1,000.0,037.5,030.7,21.1,0000.0,0007.74,0003.39,0002.35
2023-07-26 09:10:00,SystemResetWarning,0834.2,5.00,000.00,029.1,027.4,000.0,037.5,030.8,20.9,0000.0,0007.68,0003.38,0002.38
2023-07-26 09:11:00,SystemResetWarning,0834.2,5.00,000.00,029.2,027.6,000.0,037.5,030.8,20.8,0000.0,0006.89,0003.35,0002.39
2023-07-26 09:12:00,SystemResetWarning,0834.2,5.01,000.00,029.2,027.8,000.0,037.6,030.9,20.8,0000.0,0006.92,0003.35,0002.39
2023-07-26 09:13:00,SystemResetWarning,0834.2,4.99,000.00,029.2,028.0,000.0,037.6,030.9,20.9,0000.0,0006.87,0003.34,0002.36
2023-07-26 09:14:00,SystemResetWarning,0834.2,4.99,000.00,029.3,027.5,000.0,037.5,030.9,21.0,0000.0,0007.05,0003.35,0002.35
2023-07-26 09:15:00,SystemResetWarning,0834.2,5.00,000.00,029.2,025.9,000.0,037.4,030.8,20.9,0000.0,0007.79,0003.36,0002.35
2023-07-26 09:16:00,SystemResetWarning,0834.2,5.01,000.00,029.2,025.6,000.0,037.4,030.6,21.1,0000.0,0007.84,0003.33,0002.34
2023-07-26 09:17:00,SystemResetWarning,0834.2,5.00,000.00,029.1,025.8,000.0,037.4,030.5,21.3,0000.0,0007.80,0003.33,0002.33
2023-07-26 09:18:00,SystemResetWarning,0834.2,5.00,000.00,029.1,026.2,000.0,037.4,030.5,21.2,0000.0,0007.89,0003.35,0002.31
2023-07-26 09:19:00,SystemResetWarning,0834.2,5.00,000.00,029.1,026.6,000.0,037.5,030.6,21.0,0000.0,0007.83,0003.31,0002.26
2023-07-26 09:20:00,SystemResetWarning,0834.2,5.00,000.00,029.1,026.9,000.0,037.5,030.7,21.4,0000.0,0007.85,0003.29,0002.22
2023-07-26 09:21:00,SystemResetWarning,0834.2,5.00,000.00,029.1,027.2,000.0,037.5,030.7,20.8,0000.0,0007.90,0003.28,0002.19
2023-07-26 09:22:00,SystemResetWarning,0834.2,5.00,000.00,029.1,027.5,000.0,037.5,030.8,20.8,0000.0,0007.88,0003.26,0002.17
2023-07-26 09:23:00,SystemResetWarning,0834.2,4.99,000.00,029.2,027.7,000.0,037.5,030.8,21.1,0000.0,0007.77,0003.22,0002.15
2023-07-26 09:24:00,SystemResetWarning,0834.2,5.00,000.00,029.2,027.9,000.0,037.6,030.9,20.9,0000.0,0007.67,0003.20,0002.12
2023-07-26 09:25:00,SystemResetWarning,0834.2,5.00,000.00,029.2,028.0,000.0,037.6,031.0,21.1,0000.0,0008.14,0003.14,0002.08
2023-07-26 09:26:00,SystemResetWarning,0834.3,4.99,000.00,029.3,027.1,000.0,037.5,030.9,21.0,0000.0,0007.23,0003.05,0002.02
2023-07-26 09:27:00,SystemResetWarning,0834.2,5.01,000.00,029.2,025.7,000.0,037.4,030.7,21.0,0000.0,0007.04,0002.98,0001.97
2023-07-26 09:28:00,SystemResetWarning,0834.2,5.01,000.00,029.1,025.6,000.0,037.4,030.5,21.3,0000.0,0007.11,0002.88,0001.93
2023-07-26 09:29:00,SystemResetWarning,0834.2,5.00,000.00,029.1,025.9,000.0,037.4,030.4,21.6,0000.0,0006.79,0002.76,0001.90
2023-07-26 09:30:00,SystemResetWarning,0834.2,5.00,000.00,029.1,026.3,000.0,037.5,030.5,21.9,0000.0,0006.59,0002.75,0001.90
2023-07-26 09:31:00,SystemResetWarning,0834.2,5.00,000.00,029.1,026.7,000.0,037.5,030.6,22.2,0000.0,0006.54,0002.73,0001.88
2023-07-26 09:32:00,SystemResetWarning,0834.2,5.00,000.00,029.1,027.0,000.0,037.5,030.7,22.1,0000.0,0006.57,0002.70,0001.86
2023-07-26 09:33:00,SystemResetWarning,0834.1,4.99,000.00,029.1,027.3,000.0,037.5,030.7,22.0,0000.0,0006.70,0002.76,0001.86
2023-07-26 09:34:00,SystemResetWarning,0834.1,5.00,000.00,029.1,027.5,000.0,037.5,030.8,22.0,0000.0,0007.07,0002.84,0001.86
2023-07-26 09:35:00,SystemResetWarning,0834.1,5.00,000.00,029.2,027.7,000.0,037.6,030.9,22.0,0000.0,0008.00,0002.85,0001.86
2023-07-26 09:36:00,SystemResetWarning,0834.1,5.00,000.00,029.2,027.9,000.0,037.6,030.9,22.1,0000.0,0007.55,0002.89,0001.88
2023-07-26 09:37:00,SystemResetWarning,0834.1,5.00,000.00,029.3,028.0,000.0,037.6,031.0,22.0,0000.0,0007.32,0002.87,0001.90
2023-07-26 09:38:00,SystemResetWarning,0834.0,4.98,000.00,029.3,026.6,000.0,037.5,030.8,22.0,0000.0,0006.88,0002.88,0001.92
2023-07-26 09:39:00,SystemResetWarning,0834.0,5.01,000.00,029.2,024.8,000.0,037.4,030.5,22.2,0000.0,0006.72,0002.95,0001.94
2023-07-26 09:40:00,SystemResetWarning,0834.0,5.01,000.00,029.1,024.7,000.0,037.3,030.3,22.2,0000.0,0006.93,0003.02,0001.94
2023-07-26 09:41:00,SystemResetWarning,0833.9,5.00,000.00,029.0,025.0,000.0,037.3,030.2,22.2,0000.0,0006.96,0003.03,0001.97
2023-07-26 09:42:00,SystemResetWarning,0833.9,5.00,000.00,028.9,025.5,000.0,037.4,030.2,22.1,0000.0,0006.78,0002.98,0001.99
2023-07-26 09:43:00,SystemResetWarning,0833.8,5.00,000.00,028.9,025.9,000.0,037.4,030.3,22.4,0000.0,0006.80,0003.02,0002.01
2023-07-26 09:44:00,SystemResetWarning,0833.9,5.00,000.00,028.9,026.3,000.0,037.4,030.4,22.6,0000.0,0006.77,0002.99,0002.02
2023-07-26 09:45:00,SystemResetWarning,0833.9,5.00,000.00,028.9,026.7,000.0,037.4,030.5,22.5,0000.0,0006.62,0002.97,0002.03
2023-07-26 09:46:00,SystemResetWarning,0833.9,5.00,000.00,028.9,027.0,000.0,037.4,030.5,22.5,0000.0,0005.21,0003.04,0002.05
2023-07-26 09:47:00,SystemResetWarning,0833.8,5.00,000.00,029.0,027.3,000.0,037.4,030.6,22.1,0000.0,0005.04,0003.02,0002.09
2023-07-26 09:48:00,SystemResetWarning,0833.9,5.01,000.00,029.0,027.5,000.0,037.4,030.7,21.8,0000.0,0005.05,0003.04,0002.12
2023-07-26 09:49:00,SystemResetWarning,0833.8,5.00,000.00,029.0,027.7,000.0,037.4,030.7,21.8,0000.0,0005.24,0003.09,0002.12
2023-07-26 09:50:00,SystemResetWarning,0833.8,5.00,000.00,029.1,027.8,000.0,037.5,030.8,21.6,0000.0,0005.29,0003.09,0002.14
2023-07-26 09:51:00,SystemResetWarning,0833.8,5.00,000.00,029.1,028.0,000.0,037.5,030.8,21.5,0000.0,0005.22,0003.08,0002.16
2023-07-26 09:52:00,SystemResetWarning,0833.8,5.00,000.00,029.2,028.1,000.0,037.5,030.9,21.3,0000.0,0005.34,0003.10,0002.18
2023-07-26 09:53:00,SystemResetWarning,0833.7,5.00,000.00,029.2,028.1,000.0,037.5,030.9,21.5,0000.0,0005.53,0003.14,0002.20
2023-07-26 09:54:00,SystemResetWarning,0833.8,4.98,000.00,029.2,026.6,000.0,037.4,030.8,21.4,0000.0,0005.52,0003.15,0002.23
2023-07-26 09:55:00,SystemResetWarning,0833.7,5.01,000.00,029.2,025.6,000.0,037.4,030.6,21.5,0000.0,0005.45,0003.15,0002.24
2023-07-26 09:56:00,SystemResetWarning,0833.7,5.00,000.00,029.1,025.7,000.0,037.3,030.5,21.6,0000.0,0005.51,0003.13,0002.24
2023-07-26 09:57:00,SystemResetWarning,0833.7,5.01,000.00,029.0,026.0,000.0,037.4,030.4,21.5,0000.0,0005.85,0003.11,0002.23
2023-07-26 09:58:00,SystemResetWarning,0833.8,5.00,000.00,029.0,026.4,000.0,037.4,030.5,21.6,0000.0,0005.96,0003.11,0002.21
2023-07-26 09:59:00,SystemResetWarning,0833.8,5.00,000.00,029.0,026.8,000.0,037.4,030.6,21.7,0000.0,0006.45,0003.13,0002.21
